Regional Weather Roundup
Issued by NWS Green Bay, WI

Home | Current Version | Previous Version | Text Only | Print | Product List | Glossary On
Versions: 1 2 3 4 5 6 7 8 9 10 11 12 13 14 15 16 17 18 19 20 21 22 23 24 25 26 27 28 29 30 31 32 33 34 35 36 37 38 39 40 41 42 43 44 45 46 47 48 49 50
000
ASUS43 KGRB 202310
RWRGRB

NORTH-CENTRAL AND NORTHEAST WISCONSIN REGIONAL WEATHER ROUNDUP
NATIONAL WEATHER SERVICE GREEN BAY WI
600 PM CDT MON OCT 20 2014

WIZ005-009-010>012-018-019-210000-
NORTH CENTRAL WISCONSIN

CITY           SKY/WX    TMP DP  RH WIND       PRES   REMARKS
IRONWOOD       CLOUDY    46  43  87 N8        30.00R
MANITOWISH WTR CLOUDY    44  43  95 N5        30.00R
ARBOR VITAE    CLOUDY    46  42  86 NW6       29.99R
EAGLE RIVER    CLOUDY    44  41  89 N6        29.98R
LAND O LAKES   CLOUDY    44  41  89 N6        30.00R
RHINELANDER    CLOUDY    44  42  93 N3        29.99R
PHILLIPS       CLOUDY    48  39  72 N6        29.99R
ANTIGO         CLOUDY    45  40  85 N12G21    29.98R HAZE
TOMAHAWK       CLOUDY    46  39  76 CALM      30.00R
MERRILL        CLOUDY    48  41  75 N9        29.99R
$$

WIZ013-073-210000-
NORTHEAST WISCONSIN

CITY           SKY/WX    TMP DP  RH WIND       PRES   REMARKS
IRON MOUNTAIN  CLOUDY    46  38  73 N9        29.96R
MARINETTE      CLOUDY    48  39  71 N6        29.94R
OCONTO         CLOUDY    49  44  85 NW6       29.95R
$$

WIZ017-030-035>037-045-210000-
CENTRAL WISCONSIN

CITY           SKY/WX    TMP DP  RH WIND       PRES   REMARKS
MEDFORD        CLOUDY    48  39  71 N6        30.00R
WAUSAU         CLOUDY    50  39  66 N8        29.97R
MOSINEE        CLOUDY    48  43  81 N7        29.99R
MARSHFIELD     CLOUDY    51  39  63 N6        29.99R
WISC RAPIDS    CLOUDY    52  40  63 N8        30.00R
STEVENS POINT  CLOUDY    48  39  69 NW6       29.99R
WAUPACA        CLOUDY    54  44  69 NW5       29.97R
SHAWANO        CLOUDY    53  43  69 NW3       29.96R
CLINTONVILLE   CLOUDY    52  43  71 NW5       29.96R
$$

WIZ038-039-048-051-210000-
FOX VALLEY

CITY           SKY/WX    TMP DP  RH WIND       PRES   REMARKS
NWS GREEN BAY  CLOUDY    50  44  80 NW3       29.95R
APPLETON       CLOUDY    52  43  71 NW6       29.96R
OSHKOSH        CLOUDY    52  42  69 NW8       29.96R
FOND DU LAC    CLOUDY    52  42  69 NW8       29.96R
$$

WIZ022-050-052-210000-
EAST CENTRAL WISCONSIN

CITY           SKY/WX    TMP DP  RH WIND       PRES   REMARKS
STURGEON BAY   CLOUDY    48  43  81 N15       29.95R
MANITOWOC      LGT RAIN  50  45  83 NW7       29.95R
SHEBOYGAN      CLOUDY    52  41  66 NW7       29.94R
$$

LMZ563-521-522-541>543-210000-
LAKESHORE

STATION/POSITION TIME  TEMP    WIND        PRES    VSBY  WAVE
                       AIR SEA DIR/SP/G                  HT/PER
                 (UTC) (F)     (DEG/KT/KT) (MB)    (MI)  (FT/S)
SHEBOYGAN LKSHOR 2300   52 50  350/  7/  7 1014.3R
KEWAUNEE LKSHORE 2300   50     310/  5/  7 1012.7R
NORTHPORT PIER   2300   49     330/ 20/ 25 1013.5R
N MID LAKE BUOY  2300   47 51  330/ 21/ 23 1012.8R         4/ 5
SISTER BAY LKSHO 2200          360/ 20/ 25   N/A
CHAMBERS ISLAND  2300   50     330/ 15/ 21 1013.9R
MENOMINEE LKSHOR 2300   50     350/  9/ 11 1014.4R
$$


USA.gov is the U.S. government's official web portal to all federal, state and local government web resources and services.